MET5208 - Greenville - Spartanburg to Boston

Embraer ERJ-170LR
N924AG
2 hrs 00 mins
691 nm
Scheduled - Daily

Bid/PiRep Status

Bid was submitted on Jan 01 2017.

PiRep # 74570: Approved by Sean Doyle on January 2nd, 2017 20:08 UTC

Departure

Departing from
Greenville - Spartanburg (GSP)
Departure gate
Ramp
Scheduled Departure
GMT 1500
Local 1100
METAR KGSP 281853Z 21010KT 10SM SCT040 27/17 A3007 RMK AO2 SLP172 T02720172
TAF KGSP 281846Z 2819/2918 22008KT P6SM SCT035 FM290200 VRB03KT P6SM SCT045 FM290900 21004KT 2SM BR SCT015 TEMPO 2909/2913 OVC006 FM291400 21005KT P6SM SCT020

Route Map

Planning Resources

SPA V605 GENOD GSO J14 RIC
SPA RDU FAK OTT6
SPA J37 GVE J42 OTT RAVNN5
SPA JAC EVING LOOEY JAXSN CREWE FAK OGATE BRV OTT DEALE RAVNN
CEVVY SPA J37 GVE J42 OTT RAVNN5 COLUM
Route:
OFP Layout:
Units:
Detailed Navlog:
ETOPS Planning:
Plan Stepclimbs:
Runway Analysis:
Include NOTAMS:
FIR NOTAMS:
Flight Maps:

Return Flights

MET5207
Embraer ERJ-170LR
1230 GMT
MET5209
Embraer ERJ-170LR
2130 GMT

Popularity

Hub Current Bids PiReps this month Total PiReps
KMCI 0 0 2
KLAX 0 0 0
KBOS 0 0 2